Location: Overspoor
(51.4747°N, 5.6641°E)
Time: 07:06:24
(UTC+02:00)

YUBILEINY - Pass Details

Date: 05 July 2022
Orbit: 1478 x 1509 km, 82.5° (Epoch: 17 August)

Event Time Altitude Azimuth Distance (km) Brightness Sun altitude
Rises 04:31:06 0° 348° (NNW) 4,656 ? -7.0°
Reaches altitude 10° 04:34:10 10° 354° (N) 3,668 ? -6.7°
Maximum altitude 04:42:44 51° 69° (ENE) 1,824 ? -5.8°
Drops below altitude 10° 04:51:10 10° 144° (SE) 3,626 ? -4.9°
Sets 04:54:09 0° 150° (SSE) 4,599 ? -4.6°
